Location: Dürrmenz
(48.9417°N, 8.8387°E)
Time: 07:09:38
(UTC+00:00)

Daily predictions for brighter satellites

Satellite Brightness Start Highest point End
(mag) Time Altitude Azimuth Time Altitude Azimuth Time Altitude Azimuth
Cosmos 1484 Rocket 2.5 16:21:32 10° SSE 16:24:52 83° W 16:28:13 10° NNW
Meteor 1-22 Rocket 4.3 16:20:52 10° N 16:26:25 52° ENE 16:31:43 10° SSE
Cosmos 1953 3.3 16:24:50 10° NNE 16:27:47 22° ENE 16:30:43 10° ESE
ATLAS 5 CENTAUR R/B 1.5 16:30:46 10° S 16:33:29 33° ESE 16:36:22 10° ENE
BREEZE M DEB (TANK) 2.8 16:34:53 10° W 16:36:54 44° SSW 16:39:40 10° SE
Cosmos 1470 Rocket 4.2 16:33:33 10° N 16:37:28 33° ENE 16:41:25 10° SE
CZ-2D R/B 3.2 16:36:22 10° SE 16:39:18 37° ENE 16:42:14 10° N
Cosmos 1697 Rocket 4.4 16:37:49 10° N 16:40:34 13° NNE 16:43:18 10° ENE
SL-16 R/B 2.7 16:34:55 10° NNE 16:41:06 80° WNW 16:47:15 10° SSW
Cosmos 2251 Rocket 4.0 16:36:12 10° NNW 16:41:26 66° WSW 16:46:36 10° S
Cosmos 1420 Rocket 4.1 16:36:38 10° SSW 16:41:52 84° WNW 16:47:07 10° NNE
Cosmos 304 Rocket 4.3 16:40:52 10° NNW 16:45:35 64° WSW 16:50:16 10° S
USA 59 Rocket 1.6 16:44:39 10° N 16:45:37 11° NNE 16:46:38 10° NE
ISS -1.8 16:49:55 10° S 16:52:12 17° SE 16:54:17 11° E
Cosmos 2366 rocket 4.0 16:50:58 10° N 16:57:16 63° ENE 17:03:34 10° SSE
Cosmos 2056 Rocket 3.4 16:52:37 10° SSW 16:57:45 81° ESE 17:02:52 10° NNE
Cosmos 332 Rocket 4.0 16:53:08 10° NNW 16:57:47 48° ENE 17:02:24 10° SE
Cosmos 2369 Rocket 3.3 16:52:22 10° NW 16:57:52 50° WSW 17:03:18 10° S
MOS 1 Rocket 3.6 16:54:05 10° SSE 16:59:23 90° ENE 17:04:30 10° NNW
Cosmos 2218 Rocket 4.1 16:53:46 10° N 17:00:08 61° ENE 17:06:27 10° SSE
ARIANE 5 R/B 2.6 16:57:52 10° SSE 17:03:05 89° ENE 17:08:21 10° NNW
Cosmos 1943 3.2 17:00:13 10° SSW 17:05:49 75° ESE 17:11:30 10° NNE
CZ-2D R/B 3.9 17:02:46 10° SE 17:06:11 31° ENE 17:09:36 10° N
RESURS DK-1 4.2 17:05:02 10° SE 17:06:57 13° ESE 17:07:01 13° ESE
Meteor 1-28 Rocket 4.4 17:06:52 10° N 17:09:56 36° WNW 17:12:58 10° SW
SL-24 R/B - RUBIN 2 4.0 17:07:08 10° NNW 17:11:16 39° NE 17:14:45 14° ESE
UNK 3.9 17:06:48 10° N 17:11:19 73° WNW 17:15:47 10° SSW
Cosmos 1869 Rocket 4.5 17:08:23 10° NNE 17:12:06 26° ENE 17:15:47 10° SE
Landsat 7 4.4 17:07:59 10° S 17:12:35 60° W 17:17:13 10° NNW
Cosmos 1633 Rocket 3.2 17:08:38 10° NNW 17:12:57 74° W 17:17:13 10° S
Cosmos 2341 Rocket 4.0 17:07:46 10° N 17:14:10 86° E 17:20:27 10° S
USA 238 DEB 3.9 17:10:36 10° NW 17:17:58 81° NE 17:26:02 10° SE
USA 238 3.9 17:10:42 10° NW 17:18:04 81° NE 17:26:08 10° SE
SMAP 4.3 17:14:46 10° S 17:19:14 45° W 17:23:43 10° NNW
CARTOSAT-1 4.3 17:15:56 10° SE 17:19:32 28° ENE 17:23:09 10° N
Radarsat Rocket 4.1 17:14:03 10° SE 17:20:02 50° ENE 17:25:40 10° N
COSMO-SKYMED 1 3.2 17:18:21 18° NE 17:20:43 31° E 17:24:23 10° SSE
USA 276 3.4 17:19:08 10° SSW 17:20:55 18° SE 17:21:09 18° SE
Resurs 1-3 3.7 17:18:23 10° SE 17:22:33 50° ENE 17:26:43 10° N
USA 267 3.4 17:17:29 15° E 17:22:48 56° NNE 17:29:10 10° WNW
Cosmos 2237 Rocket 4.4 17:20:07 10° WNW 17:23:40 17° NW 17:27:15 10° N
Cosmos 968 Rocket 3.4 17:19:58 10° NNW 17:25:10 89° ENE 17:30:17 10° SSE
Cosmos 1959 Rocket 4.4 17:19:58 10° N 17:26:07 86° E 17:32:16 10° S
Cosmos 1371 Rocket 4.4 17:21:00 10° SW 17:26:15 65° WNW 17:31:29 10° NNE
SL-16 R/B 3.5 17:21:23 10° WSW 17:26:35 36° NW 17:31:49 10° NNE
Nadezhda 3 Rocket 4.4 17:23:03 10° SSE 17:28:33 36° E 17:34:06 10° NNE
SAR-Lupe-1 4.2 17:25:29 10° S 17:29:03 75° WSW 17:32:38 10° NNW
Cosmos 1328 Rocket 4.4 17:27:15 10° SSW 17:31:30 52° WNW 17:35:49 10° N
Meteor 1-23 Rocket 4.1 17:28:26 10° S 17:34:07 81° E 17:39:46 10° NNE
Cosmos 1741 Rocket 3.9 17:29:31 10° NNW 17:34:46 76° ENE 17:39:58 10° SSE
IRAS Rocket 4.5 17:29:52 10° SE 17:35:03 44° ENE 17:40:18 10° N
BREEZE-M DEB (TANK) 3.1 17:31:27 10° W 17:36:33 83° N 17:38:13 31° E
Cosmos 1331 Rocket 3.9 17:31:44 10° S 17:36:48 65° ESE 17:40:43 17° NNE
SKYMED 2 3.5 17:32:48 10° NNE 17:37:11 74° ESE 17:41:31 10° S
SPOT 1/Viking Rocket 3.7 17:34:17 10° S 17:39:26 76° WSW 17:44:37 10° NNW
Cosmos 1850 Rocket 4.0 17:37:20 10° NNW 17:42:40 89° WSW 17:47:59 10° SSE
Meteor 1-21 4.1 17:39:08 10° S 17:44:45 88° E 17:50:23 10° NNE
Meteor 1-16 Rocket 4.1 17:41:22 10° NNW 17:46:42 83° W 17:52:04 10° S
SL-19 R/B 4.4 17:43:40 10° SSE 17:49:49 72° ENE 17:56:08 10° NNW
SJ-7 4.0 17:46:13 10° SSE 17:50:00 78° ENE 17:53:49 10° N
Cosmos 1110 Rocket 3.9 17:47:48 10° SSW 17:53:01 88° WNW 17:56:56 18° NNE
Cosmos 1656 3.6 17:48:37 10° NNW 17:54:14 66° ENE 17:59:09 13° SE
Cosmos 1515 Rocket 3.8 17:50:49 10° SSW 17:55:12 70° W 17:59:39 10° N
YAOGAN 1 2.6 17:52:22 10° S 17:56:37 76° WSW 18:00:54 10° NNW
NOAA 6 3.9 17:51:50 10° SSE 17:56:54 73° ENE 18:02:01 10° N
Meteor 1-12 Rocket 4.3 17:52:11 10° NNW 17:57:50 77° W 18:03:27 10° S
Resurs 01 Rocket 1.6 17:56:23 26° SE 17:58:35 52° ENE 18:02:51 10° N
COSMOS 2455 3.7 17:53:24 10° NNW 17:58:35 29° NE 17:59:03 28° NE
NOSS 3-4 (A) 3.1 17:54:37 10° SW 17:59:54 87° SE 18:02:41 32° NE
NOSS 3-4 (C) 3.1 17:54:45 10° SW 18:00:03 86° SE 18:02:51 32° NE
Cosmos 1980 Rocket 3.7 17:56:30 10° N 17:59:30 19° NNE 17:59:30 19° NNE
Cosmos 292 Rocket 3.6 17:55:48 10° NNW 18:00:32 89° ENE 18:05:14 10° SSE
PSLV R/B 3.4 17:57:33 10° SSE 18:01:42 90° WNW 18:05:54 10° NNW
Cosmos 1953 4.1 17:59:36 10° NNW 18:02:53 30° W 18:06:09 10° SSW
Okean 3 3.2 17:59:04 10° S 18:03:04 61° E 18:03:07 61° E
Cosmos 1452 Rocket 3.4 17:58:10 10° SSW 18:03:24 82° ESE 18:06:22 27° NNE
Cosmos 1703 4.3 18:00:30 10° SW 18:03:36 37° WNW 18:06:05 14° N
Cosmos 1340 Rocket 2.6 17:59:47 10° NNW 18:03:37 88° WSW 18:07:26 10° S
BREEZE-M (TANK) 2.8 18:03:10 10° WSW 18:04:33 38° WSW 18:04:33 38° WSW
ATLAS 3B R/B 4.3 18:04:59 10° WNW 18:11:34 28° N 18:15:25 19° NNE
ATLAS 5 CENTAUR R/B 2.7 18:13:21 10° W 18:15:52 23° NNW 18:15:58 23° NNW
SL-08 R/B 4.5 18:17:05 10° N 18:23:34 86° E 18:30:03 10° S
Cosmos 1697 Rocket 3.1 18:20:34 10° NNW 18:25:14 43° NNE 18:25:14 43° NNE
Cosmos 1603 4.1 18:20:33 10° SW 18:26:07 59° WNW 18:29:14 26° NNE
SL-16 R/B 4.4 18:25:58 10° N 18:26:21 11° N 18:26:21 11° N
BREEZE-M DEB (TANK) 3.1 18:25:17 10° WSW 18:27:50 67° SSW 18:27:50 67° SSW
ISS -2.2 18:25:14 10° WSW 18:27:15 34° WSW 18:27:15 34° WSW
Cosmos 1339 Rocket 4.3 18:22:58 10° S 18:29:09 75° E 18:34:24 14° NNE
USA 215 3.2 18:29:09 50° ENE 18:30:53 71° SE 18:37:24 10° SW
NOSS 3-1 (C) 4.0 18:26:33 10° NW 18:33:05 53° NE 18:34:16 49° ENE
USA 59 Rocket 1.8 18:31:36 10° NW 18:32:24 17° NNW 18:32:24 17° NNW
Cosmos 1833 Rocket 3.9 18:31:17 10° S 18:34:06 28° SSE 18:34:06 28° SSE
RESURS DK-1 3.5 18:39:49 10° SW 18:42:20 37° SW 18:42:20 37° SW
COSMO-SKYMED 1 4.3 18:54:39 24° NW 18:55:57 28° WNW 18:59:29 10° SW
Cosmos 1934 Rocket 4.1 18:51:32 10° NNW 18:57:37 71° W 19:03:47 10° S
USA 267 3.3 19:04:50 63° S 19:05:44 71° SW 19:12:17 10° WNW
BREEZE-M DEB (TANK) 3.8 19:16:59 10° W 19:21:09 86° NW 19:21:09 86° NW
Resurs 01 Rocket 4.1 19:33:43 16° WSW 19:35:15 19° W 19:38:22 10° NW
COSMOS 2455 4.2 19:39:07 10° NW 19:42:13 32° NW 19:42:13 32° NW
Cosmos 1980 Rocket 4.3 19:39:46 10° NNW 19:41:15 19° NNW 19:41:15 19° NNW
ATLAS 3B R/B 4.4 19:57:52 10° NW 20:02:39 28° N 20:02:39 28° N
